Fergus Falls, MN

2:00 PM CST on November 19, 2017 (GMT -0600)
Fergus Falls Municipal-Mickelson

Weather History for KFFM - May, 2013

Change the Weather History Date:

Thursday, May 2, 2013

  Actual Average Record
Temperature  
Mean Temperature 32 °F -  
Max Temperature 39 °F 60 °F 94 °F (1959)
Min Temperature 24 °F 38 °F 19 °F (1967)
Degree Days  
Heating Degree Days 34    
Moisture  
Dew Point 22 °F    
Average Humidity 68    
Maximum Humidity 93    
Minimum Humidity 49    
Precipitation  
Precipitation 0.00 in - - ()
Sea Level Pressure  
Sea Level Pressure 30.58 in    
Wind  
Wind Speed 7 mph (North)    
Max Wind Speed 22 mph    
Max Gust Speed 29 mph    
Visibility 10 miles    
Events      
Averages and records for this station are not official NWS values.
T = Trace of Precipitation, MM = Missing Value Source: NWS Daily Summary

Daily Weather History Graph

Daily Weather History Graph

Search for Another Location

Airport or City:

Trip Planner

Search our weather history database for the weather conditions in past years. The results will help you decide how hot, cold, wet, or windy it might be!

Date:

Astronomy

May. 02, 2013 Rise Set
Actual Time 6:08 AM CDT 8:35 PM CDT
Civil Twilight 5:35 AM CDT 9:08 PM CDT
Nautical Twilight 4:53 AM CDT 9:50 PM CDT
Astronomical Twilight 4:06 AM CDT 10:38 PM CDT
Moon 2:22 AM CDT (5/2) 1:01 PM CDT (5/2)
Length of Visible Light 15h 33m
Length of Day
14h 26m
Waning Gibbous, 47% of the Moon is Illuminated
May 2
Waning Gibbous
May 9
New
May 17
First Quarter
May 24
Full
May 31
Last Quarter

Hourly Weather History & Observations

Time (CDT) Temp. Windchill Dew Point Humidity Pressure Visibility Wind Dir Wind Speed Gust Speed Precip Events Conditions
12:13 AM 30.2 °F - 24.8 °F 80% 30.57 in 10.0 mi Calm Calm - N/A   Clear
12:33 AM 28.4 °F 24.6 °F 23.0 °F 80% 30.56 in 10.0 mi NE 3.5 mph - N/A   Clear
12:53 AM 28.4 °F - 23.0 °F 80% 30.57 in 10.0 mi Calm Calm - N/A   Clear
1:13 AM 28.4 °F 23.3 °F 23.0 °F 80% 30.57 in 10.0 mi NE 4.6 mph - N/A   Clear
1:33 AM 30.2 °F 25.4 °F 23.0 °F 75% 30.57 in 10.0 mi ENE 4.6 mph - N/A   Clear
1:53 AM 30.2 °F 26.7 °F 23.0 °F 75% 30.58 in 10.0 mi NE 3.5 mph - N/A   Clear
2:13 AM 28.4 °F - 21.2 °F 74% 30.59 in 10.0 mi Calm Calm - N/A   Clear
2:33 AM 28.4 °F - 23.0 °F 80% 30.59 in 10.0 mi Calm Calm - N/A   Clear
2:53 AM 26.6 °F 22.6 °F 21.2 °F 80% 30.59 in 10.0 mi North 3.5 mph - N/A   Clear
3:13 AM 26.6 °F - 21.2 °F 80% 30.59 in 10.0 mi Calm Calm - N/A   Clear
3:33 AM 26.6 °F 22.6 °F 21.2 °F 80% 30.59 in 10.0 mi NNW 3.5 mph - N/A   Clear
3:53 AM 24.8 °F 20.5 °F 21.2 °F 86% 30.60 in 10.0 mi NNW 3.5 mph - N/A   Clear
4:13 AM 26.6 °F 21.2 °F 21.2 °F 80% 30.60 in 10.0 mi NNW 4.6 mph - N/A   Clear
4:33 AM 26.6 °F 20.0 °F 21.2 °F 80% 30.60 in 10.0 mi North 5.8 mph - N/A   Clear
4:53 AM 26.6 °F 21.2 °F 21.2 °F 80% 30.60 in 10.0 mi North 4.6 mph - N/A   Clear
5:13 AM 26.6 °F 21.2 °F 21.2 °F 80% 30.61 in 10.0 mi NNW 4.6 mph - N/A   Clear
5:33 AM 24.8 °F 17.9 °F 21.2 °F 86% 30.61 in 10.0 mi NNW 5.8 mph - N/A   Clear
5:53 AM 24.8 °F 16.9 °F 21.2 °F 86% 30.61 in 10.0 mi NNW 6.9 mph - N/A   Clear
6:13 AM 24.8 °F 17.9 °F 21.2 °F 86% 30.63 in 10.0 mi NNW 5.8 mph - N/A   Clear
6:33 AM 24.8 °F 17.9 °F 21.2 °F 86% 30.63 in 10.0 mi NNW 5.8 mph - N/A   Clear
6:53 AM 26.6 °F 19.1 °F 23.0 °F 86% 30.64 in 10.0 mi NNW 6.9 mph - N/A   Clear
7:13 AM 26.6 °F 19.1 °F 24.8 °F 93% 30.64 in 10.0 mi North 6.9 mph - N/A   Clear
7:33 AM 28.4 °F 21.2 °F 24.8 °F 86% 30.65 in 10.0 mi NNW 6.9 mph - N/A   Clear
8:13 AM 30.2 °F 23.4 °F 23.0 °F 75% 30.66 in 10.0 mi NNE 6.9 mph - N/A   Clear
8:33 AM 30.2 °F 21.9 °F 21.2 °F 69% 30.66 in 10.0 mi NNE 9.2 mph - N/A   Clear
8:53 AM 30.2 °F 21.3 °F 21.2 °F 69% 30.66 in 10.0 mi North 10.4 mph 16.1 mph N/A   Clear
9:13 AM 32.0 °F 23.0 °F 21.2 °F 64% 30.66 in 10.0 mi North 11.5 mph - N/A   Clear
9:33 AM 33.8 °F 25.8 °F 21.2 °F 60% 30.67 in 10.0 mi North 10.4 mph 16.1 mph N/A   Clear
9:53 AM 33.8 °F 25.8 °F 21.2 °F 60% 30.66 in 10.0 mi North 10.4 mph 18.4 mph N/A   Clear
10:13 AM 33.8 °F 26.4 °F 21.2 °F 60% 30.66 in 10.0 mi North 9.2 mph 23.0 mph N/A   Clear
10:33 AM 33.8 °F 23.2 °F 21.2 °F 60% 30.65 in 10.0 mi North 17.3 mph 25.3 mph N/A   Clear
10:53 AM 33.8 °F 23.9 °F 21.2 °F 60% 30.65 in 10.0 mi North 15.0 mph 23.0 mph N/A   Clear
11:33 AM 33.8 °F 24.3 °F 21.2 °F 60% 30.65 in 10.0 mi North 13.8 mph 24.2 mph N/A   Clear
11:53 AM 33.8 °F 23.2 °F 21.2 °F 60% 30.65 in 10.0 mi North 17.3 mph 23.0 mph N/A   Clear
12:13 PM 33.8 °F 23.9 °F 21.2 °F 60% 30.64 in 10.0 mi North 15.0 mph 23.0 mph N/A   Clear
12:33 PM 35.6 °F 26.6 °F 21.2 °F 56% 30.64 in 10.0 mi North 13.8 mph 24.2 mph N/A   Clear
12:53 PM 35.6 °F 26.6 °F 21.2 °F 56% 30.62 in 10.0 mi North 13.8 mph 28.8 mph N/A   Clear
1:13 PM 37.4 °F 27.5 °F 21.2 °F 52% 30.61 in 10.0 mi NNW 18.4 mph 27.6 mph N/A   Clear
1:34 PM 37.4 °F 29.3 °F 21.2 °F 52% 30.60 in 10.0 mi North 12.7 mph 24.2 mph N/A   Clear
1:53 PM 39.2 °F 29.6 °F 23.0 °F 52% 30.60 in 10.0 mi NNW 19.6 mph 25.3 mph N/A   Clear
2:13 PM 37.4 °F 26.6 °F 21.2 °F 52% 30.59 in 10.0 mi NNW 21.9 mph 26.5 mph N/A   Clear
2:53 PM 37.4 °F 28.5 °F 23.0 °F 56% 30.58 in 10.0 mi North 15.0 mph 27.6 mph N/A   Clear
3:13 PM 37.4 °F 27.8 °F 21.2 °F 52% 30.57 in 10.0 mi North 17.3 mph 28.8 mph N/A   Clear
3:33 PM 39.2 °F 31.6 °F 23.0 °F 52% 30.56 in 10.0 mi North 12.7 mph 25.3 mph N/A   Clear
3:53 PM 37.4 °F 29.3 °F 21.2 °F 52% 30.56 in 10.0 mi North 12.7 mph - N/A   Clear
4:13 PM 39.2 °F 30.8 °F 21.2 °F 49% 30.55 in 10.0 mi North 15.0 mph 26.5 mph N/A   Clear
4:33 PM 39.2 °F 31.2 °F 23.0 °F 52% 30.54 in 10.0 mi North 13.8 mph 24.2 mph N/A   Clear
4:53 PM 39.2 °F 30.8 °F 21.2 °F 49% 30.54 in 10.0 mi North 15.0 mph 24.2 mph N/A   Clear
5:13 PM 39.2 °F 31.6 °F 23.0 °F 52% 30.54 in 10.0 mi NNE 12.7 mph 20.7 mph N/A   Clear
5:33 PM 39.2 °F 30.2 °F 21.2 °F 49% 30.53 in 10.0 mi North 17.3 mph 21.9 mph N/A   Clear
5:53 PM 37.4 °F 30.3 °F 21.2 °F 52% 30.53 in 10.0 mi NNE 10.4 mph - N/A   Clear
6:13 PM 37.4 °F 30.8 °F 21.2 °F 52% 30.53 in 10.0 mi North 9.2 mph 17.3 mph N/A   Clear
6:33 PM 37.4 °F 31.4 °F 23.0 °F 56% 30.53 in 10.0 mi NNE 8.1 mph 17.3 mph N/A   Clear
6:53 PM 35.6 °F 27.5 °F 23.0 °F 60% 30.53 in 10.0 mi NNE 11.5 mph 16.1 mph N/A   Clear
7:13 PM 35.6 °F 28.6 °F 21.2 °F 56% 30.53 in 10.0 mi North 9.2 mph 17.3 mph N/A   Clear
7:33 PM 35.6 °F 27.1 °F 21.2 °F 56% 30.53 in 10.0 mi North 12.7 mph 17.3 mph N/A   Clear
7:53 PM 33.8 °F 27.0 °F 21.2 °F 60% 30.54 in 10.0 mi NNE 8.1 mph - N/A   Clear
8:13 PM 33.8 °F 25.8 °F 21.2 °F 60% 30.54 in 10.0 mi NE 10.4 mph - N/A   Clear
8:33 PM 32.0 °F 23.0 °F 21.2 °F 64% 30.54 in 10.0 mi NNE 11.5 mph - N/A   Clear
8:53 PM 30.2 °F 22.6 °F 21.2 °F 69% 30.54 in 10.0 mi NNE 8.1 mph - N/A   Clear
9:14 PM 30.2 °F 23.4 °F 21.2 °F 69% 30.54 in 10.0 mi NNE 6.9 mph - N/A   Clear
9:33 PM 30.2 °F 24.3 °F 21.2 °F 69% 30.54 in 10.0 mi NNE 5.8 mph - N/A   Clear
9:53 PM 30.2 °F 24.3 °F 21.2 °F 69% 30.54 in 10.0 mi NNE 5.8 mph - N/A   Clear
10:13 PM 30.2 °F 25.4 °F 21.2 °F 69% 30.53 in 10.0 mi North 4.6 mph - N/A   Clear
10:33 PM 28.4 °F 24.6 °F 21.2 °F 74% 30.52 in 10.0 mi North 3.5 mph - N/A   Clear
10:53 PM 28.4 °F - 21.2 °F 74% 30.52 in 10.0 mi Calm Calm - N/A   Clear
11:13 PM 26.6 °F - 21.2 °F 80% 30.51 in 10.0 mi Calm Calm - N/A   Clear
11:33 PM 26.6 °F - 21.2 °F 80% 30.51 in 10.0 mi Calm Calm - N/A   Clear
11:53 PM 26.6 °F 20.0 °F 21.2 °F 80% 30.51 in 10.0 mi North 5.8 mph - N/A   Clear